{"data":{"norad_id":63747,"epoch":"2026-09-21T09:41:19.890816Z","epoch_age_seconds":126839,"freshness":"FRESH","line1":"1 63747U 25088Z   26264.40370244  .00000474  00000+0  91198-4 0  9990","line2":"2 63747  51.9043 302.6771 0000502  86.0144 274.0876 14.79913896 76809","mean_motion":14.79913896,"eccentricity":5.02e-5,"inclination_deg":51.9043,"raan_deg":302.6771,"arg_perigee_deg":86.0144,"mean_anomaly_deg":274.0876,"bstar":9.1198e-5,"rev_number":7680,"period_min":97.302958225618,"perigee_km":629.24414822434,"apogee_km":629.94772461116,"semimajor_km":7007.7329364178,"source":"CELESTRAK","updated_at":"2026-09-22T09:00:29.322119Z"}}